Orbital Elements at Epoch 2459200.5 (2020-Dec-17.0) TDB
Reference: JPL 22 (heliocentric ecliptic J2000)
Element | Value | Uncertainty (1-sigma) | Units |
e | .08615582538892032 | 4.3138e-08 | |
a | 3.022179862674587 | 2.034e-08 | au |
q | 2.761801462132084 | 1.3065e-07 | au |
i | 2.740715743283867 | 4.6696e-06 | deg |
node | 152.2250071028139 | 9.212e-05 | deg |
peri | 236.1257415325497 | 9.5663e-05 | deg |
M | 359.6298117553044 | 2.4292e-05 | deg |
tp | 2459202.473326785524 (2020-Dec-18.97332679) | 0.00012949 | TDB |
period | 1919.017291791594 5.25 | 1.9373e-05 5.304e-08 | d yr |
n | .1875960167424568 | 1.8938e-09 | deg/d |
Q | 3.28255826321709 | 2.2092e-08 | au |
|
| | Orbit Determination Parameters
Additional Information
|